Погода в Гулимине

Марокко     28°59′28″N   10°03′32″W
темп.,
°C
ветер,
м/с
пор.,
м/с
влажн.,
%
обл.,
%
осадки,
мм/ч
давл.,
гПа
погр.,
м
19 апреля, пн
пн1900:00+15сз228131 0.0 101732
03:00+14з228749 0.0 101520
06:00+13з229625 0.0 101616
09:00+18з22685 0.0 1017323
12:00+26з43365 0.0 1015914
15:00+29зсз75256 0.0 10131371
18:00+25ссз673256 0.0 1013582
21:00+18зсз235999 0.0 101579
20 апреля, вт
вт2000:00+16з237098 0.0 101579
03:00+14з228667 0.0 101448
06:00+13з229588 0.0 101426
09:00+18з236247 0.0 1014387
12:00+27зсз772275 0.0 10121025
15:00+27сз892135 0.0 1010876
18:00+22ссз710350 0.0 1011715
21:00+16сз36761 0.0 1014323
21 апреля, ср
ср2100:00+14зсз34841 0.0 1013116
03:00+14сз348666 0.0 1012308
06:00+13зсз349012 0.0 101273
09:00+18сз796613 0.0 1013716
12:00+25сз88340 0.0 1011894
15:00+24сз910370 0.0 1010840
18:00+20сз710513 0.0 1011652
21:00+15сз4575100 0.0 1013207
22 апреля, чт
чт2200:00+14зсз458529 0.0 1013186
03:00+14сз348925 0.0 1011145
06:00+13сз2392100 0.0 101246
09:00+19сз46600 0.0 1012500
12:00+25сз911335 0.0 1011803
15:00+26сз911244 0.0 1010893
18:00+21ссз813390 0.0 1011673
21:00+16сз58690 0.0 1013262
23 апреля, пт
пт2300:00+15сз46811 0.0 1012180
03:00+14сз34891 0.0 101175
06:00+13сз33958 0.0 101155
09:00+19ссз711530 0.0 1012721
12:00+24ссз1011330 0.0 10111032
15:00+24ссз1011395 0.0 10101008
18:00+20сз9116132 0.0 1011744
21:00+18сз7128392 0.0 1013743